Temp
73 72 71 72 69 69 68 69 71 70 69 67 67 67 65 66 65 65 65 64 65 66
73 71 70 69 69 69 69 70 69 68 67 67 66 66 65 65 64 65 65 65 65 66
68 69 70 70 68 68 68 68 68 67 66 66 66 66 64 65 65 64 64 66 64 64
66 67 68 69 68 68 68 68 67 67 66 65 65 65 64 64 64 63 63 64 63 62
63 60 62 61 64 65 64 65 66 66 65 65 65 64 63 63 63 62 61 61 60 59
59 62 59 59 60 62 63 64 64 64 64 63 62 62 62 62 61 61 59 57 56 55
61 58 57 59 59 61 61 62 61 62 62 63 62 61 61 60 59 58 56 54 53 52
59 59 56 56 58 59 60 62 61 60 60 59 60 59 55 55 55 54 53 52 52 52
58 59 59 57 57 60 59 59 59 58 58 57 58 51 50 53 54 53 52 50 52 53
55 57 57 57 58 56 55 55 55 55 56 54 54 48 48 52 53 52 52 52 53 56
55 54 54 54 53 52 54 53 53 53 53 52 50 47 47 50 52 51 52 52 54 54
52 51 51 51 52 50 49 49 50 50 50 48 47 45 46 49 49 48 48 50 50 54
50 49 49 49 48 48 48 48 47 45 46 46 44 43 44 47 47 47 50 52 51 47
48 48 48 47 46 46 45 44 43 43 43 44 45 44 43 45 46 46 44 45 45 47
MSLP
1013.01 1013.27 1013.22 1013.02 1013.24 1013.17 1013.21 1013.27 1013.14 1013.29 1013.37 1013.31 1013.20 1013.16 1013.04 1012.84 1012.49 1012.19 1011.74 1011.38 1010.98 1010.45
1012.62 1013.10 1013.34 1013.47 1013.58 1013.63 1013.47 1013.44 1013.32 1013.41 1013.21 1013.08 1012.96 1012.82 1012.74 1012.43 1012.07 1011.70 1011.31 1010.83 1010.35 1009.92
1012.27 1012.49 1012.60 1013.01 1013.25 1013.44 1013.46 1013.48 1013.41 1013.29 1013.26 1013.18 1012.92 1012.58 1012.39 1012.00 1011.60 1011.30 1011.01 1010.59 1010.10 1009.63
1013.19 1012.59 1012.59 1012.56 1012.79 1012.90 1012.92 1013.16 1013.32 1013.23 1013.09 1013.04 1012.78 1012.35 1011.92 1011.64 1011.26 1011.00 1010.68 1010.33 1010.04 1009.85
1012.78 1013.17 1013.07 1013.41 1012.95 1013.11 1012.92 1012.53 1012.90 1013.19 1012.91 1012.72 1012.62 1012.09 1011.69 1011.43 1011.14 1010.92 1010.66 1010.49 1010.45 1010.26
1013.11 1012.99 1013.26 1013.28 1013.15 1013.17 1012.96 1012.81 1012.51 1012.83 1012.49 1012.50 1012.76 1012.24 1011.78 1011.52 1011.16 1010.86 1010.94 1010.81 1010.94 1010.96
1013.12 1012.89 1013.09 1013.17 1013.35 1012.91 1012.73 1012.94 1012.55 1012.63 1012.12 1012.35 1012.55 1012.19 1011.85 1011.59 1011.28 1011.17 1011.13 1011.32 1011.50 1011.44
1013.16 1012.86 1013.08 1012.59 1012.90 1012.73 1012.09 1012.62 1012.48 1012.42 1012.30 1012.41 1012.28 1012.19 1012.01 1011.80 1011.47 1011.28 1011.27 1011.69 1011.85 1011.91
1012.58 1012.41 1012.15 1012.26 1011.97 1012.13 1012.15 1012.36 1012.48 1012.45 1012.33 1012.00 1012.15 1012.19 1012.01 1011.78 1011.22 1011.21 1011.51 1011.77 1011.92 1011.87
1012.37 1012.21 1011.92 1011.76 1011.80 1012.12 1012.13 1012.18 1012.21 1012.22 1012.04 1011.85 1011.88 1012.06 1011.88 1011.49 1011.29 1011.39 1011.58 1011.55 1011.64 1011.47
1012.17 1011.97 1012.10 1012.19 1012.16 1012.11 1011.95 1011.96 1011.90 1011.89 1011.73 1011.85 1012.03 1011.97 1011.79 1011.59 1011.47 1011.69 1011.79 1011.57 1011.40 1011.72
1012.40 1012.23 1012.13 1012.12 1012.11 1012.15 1012.30 1012.15 1011.94 1011.88 1011.91 1012.06 1012.17 1012.05 1011.92 1011.77 1011.91 1012.27 1012.38 1012.33 1012.26 1012.38
1012.36 1012.28 1012.24 1012.25 1012.35 1012.43 1012.39 1012.31 1012.13 1012.33 1012.35 1012.40 1012.54 1012.46 1012.36 1012.30 1012.54 1012.74 1012.84 1012.83 1013.23 1013.40
1012.54 1012.53 1012.40 1012.50 1012.61 1012.43 1012.62 1012.76 1012.84 1012.85 1012.98 1013.07 1013.16 1013.35 1013.22 1013.27 1013.40 1013.70 1013.89 1014.14 1014.25 1013.96
Wind_Speed
4 4 6 5 6 5 5 5 4 4 4 6 7 8 8 8 8 10 9 11 11 10
4 4 4 6 4 5 5 5 6 7 7 8 9 9 9 8 9 10 10 11 11 10
5 7 6 4 5 6 6 6 6 7 8 9 9 9 10 9 9 9 9 10 13 10
10 7 4 3 4 5 4 5 7 7 9 11 10 10 9 10 10 9 12 11 9 9
1 4 6 9 7 8 6 4 6 8 9 10 12 11 9 11 8 11 10 6 8 7
5 6 5 6 6 8 9 9 7 9 6 9 11 13 10 10 10 9 4 5 6 8
7 4 3 8 9 8 9 9 7 7 5 7 10 11 11 8 8 9 4 6 7 6
10 7 8 6 10 9 4 8 7 9 8 9 9 8 7 7 8 3 6 6 6 7
11 11 9 8 5 6 5 6 7 10 11 9 6 5 8 9 4 5 5 6 6 6
13 13 10 7 7 7 6 7 9 11 10 7 5 6 7 4 3 4 3 2 4 5
11 8 8 7 7 6 7 9 7 8 5 1 1 4 4 4 4 4 3 2 6 6
10 8 7 8 6 3 5 5 5 2 2 3 2 3 5 6 6 8 9 12 13 9
7 6 6 5 5 2 4 3 4 5 5 8 5 9 11 8 6 8 7 10 10 13
5 5 4 3 3 3 3 4 5 7 7 9 10 12 18 15 10 8 9 8 6 5
Wind_Direction
349 328 326 351 9 349 354 321 337 316 325 321 314 310 304 298 296 290 285 288 282 280
204 255 276 317 327 302 298 318 333 321 316 318 305 304 301 294 294 289 291 290 281 276
215 214 206 226 251 264 272 285 305 316 312 300 301 296 288 290 291 304 302 299 296 307
333 325 296 272 303 298 282 289 292 299 307 301 298 291 292 292 293 305 296 302 325 335
335 346 352 323 333 312 304 299 296 297 289 303 303 296 307 301 311 306 312 343 346 342
347 352 316 293 296 308 309 296 287 275 295 303 320 314 316 314 313 314 358 29 13 348
286 288 284 315 299 300 290 307 330 300 313 309 298 300 309 316 329 321 70 61 47 18
290 268 266 261 264 273 283 297 316 313 312 311 309 305 326 311 296 170 102 101 87 58
284 288 288 259 255 289 317 297 291 287 289 290 286 338 311 291 236 119 132 140 146 121
281 288 298 300 306 298 304 301 293 287 283 278 301 327 300 281 110 130 153 180 211 120
301 306 312 304 289 285 291 281 277 271 283 39 327 286 246 133 100 95 57 22 86 85
291 292 285 283 296 352 349 323 296 12 89 126 76 77 91 88 75 82 70 58 44 48
277 304 289 308 320 1 315 3 61 75 77 93 74 55 54 55 76 81 79 72 59 39
337 324 331 30 345 329 76 79 76 80 69 70 72 69 67 62 68 74 62 48 43 357